Time,TemperatureF,DewpointF,PressureIn,WindDirection,WindDirectionDegrees,WindSpeedMPH,WindSpeedGustMPH,Humidity,HourlyPrecipIn,Conditions,Clouds,dailyrainin,SolarRadiationWatts/m^2,SoftwareType,DateUTC
2013-03-02 00:02:00,22.0,16.0,-100.00,SSE,151,9.0,15.0,79,0.00,,,0.01,0.000000,,2013-03-02 05:02:00,
2013-03-02 00:12:00,22.0,16.0,-100.00,SSE,151,9.0,15.0,79,0.00,,,0.01,0.000000,,2013-03-02 05:12:00,
2013-03-02 00:32:00,21.0,17.0,-100.00,ESE,113,7.0,14.0,84,0.00,,,0.01,0.000000,,2013-03-02 05:32:00,
2013-03-02 00:42:00,21.0,17.0,-100.00,ESE,113,7.0,14.0,84,0.00,,,0.01,0.000000,,2013-03-02 05:42:00,
2013-03-02 00:52:00,21.0,17.0,-100.00,ESE,113,7.0,14.0,84,0.00,,,0.01,0.000000,,2013-03-02 05:52:00,
2013-03-02 01:02:00,21.0,17.0,-100.00,ESE,113,7.0,14.0,84,0.00,,,0.01,0.000000,,2013-03-02 06:02:00,
2013-03-02 01:11:00,21.0,17.0,-100.00,ESE,113,7.0,14.0,84,0.00,,,0.01,0.000000,,2013-03-02 06:11:00,
2013-03-02 01:32:00,21.0,18.0,-100.00,SE,128,8.0,13.0,88,0.00,,,0.01,0.000000,,2013-03-02 06:32:00,
2013-03-02 01:42:00,21.0,18.0,-100.00,SE,128,8.0,13.0,88,0.00,,,0.01,0.000000,,2013-03-02 06:42:00,
2013-03-02 01:52:00,21.0,18.0,-100.00,SE,128,8.0,13.0,88,0.00,,,0.01,0.000000,,2013-03-02 06:52:00,
2013-03-02 02:02:00,21.0,18.0,-100.00,SE,128,8.0,13.0,88,0.00,,,0.01,0.000000,,2013-03-02 07:02:00,
2013-03-02 02:11:00,21.0,18.0,-100.00,SE,128,8.0,13.0,88,0.00,,,0.01,0.000000,,2013-03-02 07:11:00,
2013-03-02 02:32:00,20.0,17.0,-100.00,SE,128,7.0,16.0,89,0.00,,,0.01,0.000000,,2013-03-02 07:32:00,
2013-03-02 02:42:00,20.0,17.0,-100.00,SE,128,7.0,16.0,89,0.00,,,0.01,0.000000,,2013-03-02 07:42:00,
2013-03-02 02:52:00,20.0,17.0,-100.00,SE,128,7.0,16.0,89,0.00,,,0.01,0.000000,,2013-03-02 07:52:00,
2013-03-02 03:01:00,20.0,17.0,-100.00,SE,128,7.0,16.0,89,0.00,,,0.01,0.000000,,2013-03-02 08:01:00,
2013-03-02 03:11:00,20.0,17.0,-100.00,SE,128,7.0,16.0,89,0.00,,,0.01,0.000000,,2013-03-02 08:11:00,
2013-03-02 03:43:00,20.0,16.0,-100.00,ESE,109,6.0,13.0,86,0.00,,,0.01,0.000000,,2013-03-02 08:43:00,
2013-03-02 03:52:00,20.0,16.0,-100.00,ESE,109,6.0,13.0,86,0.00,,,0.01,0.000000,,2013-03-02 08:52:00,
2013-03-02 04:02:00,20.0,16.0,-100.00,ESE,109,6.0,13.0,86,0.00,,,0.01,0.000000,,2013-03-02 09:02:00,
2013-03-02 04:11:00,20.0,16.0,-100.00,ESE,109,6.0,13.0,86,0.00,,,0.01,0.000000,,2013-03-02 09:11:00,
2013-03-02 04:16:00,19.0,16.0,-100.00,East,93,7.0,13.0,89,0.00,,,0.01,0.000000,,2013-03-02 09:16:00,
2013-03-02 04:32:00,19.0,16.0,-100.00,East,93,7.0,13.0,89,0.00,,,0.01,0.000000,,2013-03-02 09:32:00,
2013-03-02 04:42:00,19.0,16.0,-100.00,East,93,7.0,13.0,89,0.00,,,0.01,0.000000,,2013-03-02 09:42:00,
2013-03-02 04:52:00,19.0,16.0,-100.00,East,93,7.0,13.0,89,0.00,,,0.01,0.000000,,2013-03-02 09:52:00,
2013-03-02 05:01:00,19.0,16.0,-100.00,East,93,7.0,13.0,89,0.00,,,0.01,0.000000,,2013-03-02 10:01:00,
2013-03-02 05:43:00,20.0,17.0,-100.00,ESE,105,6.0,12.0,89,0.00,,,0.01,0.000000,,2013-03-02 10:43:00,
2013-03-02 05:52:00,20.0,17.0,-100.00,ESE,105,6.0,12.0,89,0.00,,,0.01,0.000000,,2013-03-02 10:52:00,
2013-03-02 06:01:00,20.0,17.0,-100.00,ESE,105,6.0,12.0,89,0.00,,,0.01,0.000000,,2013-03-02 11:01:00,
2013-03-02 06:11:00,20.0,17.0,-100.00,ESE,105,6.0,12.0,89,0.00,,,0.01,0.000000,,2013-03-02 11:11:00,
2013-03-02 06:32:00,20.0,17.0,-100.00,East,99,7.0,13.0,88,0.00,,,0.01,0.000000,,2013-03-02 11:32:00,
2013-03-02 06:42:00,20.0,17.0,-100.00,East,99,7.0,13.0,88,0.00,,,0.01,0.000000,,2013-03-02 11:42:00,
2013-03-02 06:52:00,20.0,17.0,-100.00,East,99,7.0,13.0,88,0.00,,,0.01,0.000000,,2013-03-02 11:52:00,
2013-03-02 07:02:00,20.0,17.0,-100.00,East,99,7.0,13.0,88,0.00,,,0.01,0.000000,,2013-03-02 12:02:00,
2013-03-02 07:11:00,20.0,17.0,-100.00,East,99,7.0,13.0,88,0.00,,,0.01,0.000000,,2013-03-02 12:11:00,
2013-03-02 07:33:00,20.0,17.0,-100.00,ESE,114,6.0,13.0,87,0.00,,,0.01,2.000000,,2013-03-02 12:33:00,
2013-03-02 07:43:00,20.0,17.0,-100.00,ESE,114,6.0,13.0,87,0.00,,,0.01,2.000000,,2013-03-02 12:43:00,
2013-03-02 07:53:00,20.0,17.0,-100.00,ESE,114,6.0,13.0,87,0.00,,,0.01,2.000000,,2013-03-02 12:53:00,
2013-03-02 08:01:00,20.0,17.0,-100.00,ESE,114,6.0,13.0,87,0.00,,,0.01,2.000000,,2013-03-02 13:01:00,
2013-03-02 08:11:00,20.0,17.0,-100.00,ESE,114,6.0,13.0,87,0.00,,,0.01,2.000000,,2013-03-02 13:11:00,
2013-03-02 08:42:00,21.0,17.0,-100.00,ESE,114,6.0,12.0,85,0.00,,,0.01,33.000000,,2013-03-02 13:42:00,
2013-03-02 08:53:00,21.0,17.0,-100.00,ESE,114,6.0,12.0,85,0.00,,,0.01,33.000000,,2013-03-02 13:53:00,
2013-03-02 09:01:00,21.0,17.0,-100.00,ESE,114,6.0,12.0,85,0.00,,,0.01,33.000000,,2013-03-02 14:01:00,
2013-03-02 09:11:00,21.0,17.0,-100.00,ESE,114,6.0,12.0,85,0.00,,,0.01,33.000000,,2013-03-02 14:11:00,
2013-03-02 09:32:00,23.0,17.0,-100.00,ESE,112,7.0,16.0,78,0.00,,,0.01,71.000000,,2013-03-02 14:32:00,
2013-03-02 09:42:00,23.0,17.0,-100.00,ESE,112,7.0,16.0,78,0.00,,,0.01,71.000000,,2013-03-02 14:42:00,
2013-03-02 09:52:00,23.0,17.0,-100.00,ESE,112,7.0,16.0,78,0.00,,,0.01,71.000000,,2013-03-02 14:52:00,
2013-03-02 10:02:00,23.0,17.0,-100.00,ESE,112,7.0,16.0,78,0.00,,,0.01,71.000000,,2013-03-02 15:02:00,
2013-03-02 10:11:00,23.0,17.0,-100.00,ESE,112,7.0,16.0,78,0.00,,,0.01,71.000000,,2013-03-02 15:11:00,
2013-03-02 10:32:00,23.0,16.0,-100.00,ESE,111,8.0,16.0,73,0.00,,,0.01,110.000000,,2013-03-02 15:32:00,
2013-03-02 10:42:00,23.0,16.0,-100.00,ESE,111,8.0,16.0,73,0.00,,,0.01,110.000000,,2013-03-02 15:42:00,
2013-03-02 10:52:00,23.0,16.0,-100.00,ESE,111,8.0,16.0,73,0.00,,,0.01,110.000000,,2013-03-02 15:52:00,
2013-03-02 11:02:00,23.0,16.0,-100.00,ESE,111,8.0,16.0,73,0.00,,,0.01,110.000000,,2013-03-02 16:02:00,
2013-03-02 11:11:00,23.0,16.0,-100.00,ESE,111,8.0,16.0,73,0.00,,,0.01,110.000000,,2013-03-02 16:11:00,
2013-03-02 11:32:00,26.0,17.0,-100.00,SE,130,8.0,17.0,67,0.00,,,0.01,133.000000,,2013-03-02 16:32:00,
2013-03-02 11:42:00,26.0,17.0,-100.00,SE,130,8.0,17.0,67,0.00,,,0.01,133.000000,,2013-03-02 16:42:00,
2013-03-02 11:52:00,26.0,17.0,-100.00,SE,130,8.0,17.0,67,0.00,,,0.01,133.000000,,2013-03-02 16:52:00,
2013-03-02 12:01:00,26.0,17.0,-100.00,SE,130,8.0,17.0,67,0.00,,,0.01,133.000000,,2013-03-02 17:01:00,
2013-03-02 12:12:00,26.0,17.0,-100.00,SE,130,8.0,17.0,67,0.00,,,0.01,133.000000,,2013-03-02 17:12:00,
2013-03-02 12:42:00,28.0,16.0,-100.00,ESE,107,7.0,14.0,61,0.00,,,0.01,204.000000,,2013-03-02 17:42:00,
2013-03-02 12:52:00,28.0,16.0,-100.00,ESE,107,7.0,14.0,61,0.00,,,0.01,204.000000,,2013-03-02 17:52:00,
2013-03-02 13:02:00,28.0,16.0,-100.00,ESE,107,7.0,14.0,61,0.00,,,0.01,204.000000,,2013-03-02 18:02:00,
2013-03-02 13:11:00,28.0,16.0,-100.00,ESE,107,7.0,14.0,61,0.00,,,0.01,204.000000,,2013-03-02 18:11:00,
2013-03-02 13:32:00,27.0,15.0,-100.00,ESE,108,8.0,15.0,59,0.00,,,0.01,217.000000,,2013-03-02 18:32:00,
2013-03-02 13:42:00,27.0,15.0,-100.00,ESE,108,8.0,15.0,59,0.00,,,0.01,217.000000,,2013-03-02 18:42:00,
2013-03-02 13:52:00,27.0,15.0,-100.00,ESE,108,8.0,15.0,59,0.00,,,0.01,217.000000,,2013-03-02 18:52:00,
2013-03-02 14:02:00,27.0,15.0,-100.00,ESE,108,8.0,15.0,59,0.00,,,0.01,217.000000,,2013-03-02 19:02:00,
2013-03-02 14:12:00,27.0,15.0,-100.00,ESE,108,8.0,15.0,59,0.00,,,0.01,217.000000,,2013-03-02 19:12:00,
2013-03-02 14:43:00,28.0,14.0,-100.00,East,98,9.0,16.0,56,0.00,,,0.00,233.000000,,2013-03-02 19:43:00,
2013-03-02 14:52:00,28.0,14.0,-100.00,East,98,9.0,16.0,56,0.00,,,0.00,233.000000,,2013-03-02 19:52:00,
2013-03-02 15:02:00,28.0,14.0,-100.00,East,98,9.0,16.0,56,0.00,,,0.00,233.000000,,2013-03-02 20:02:00,
2013-03-02 15:11:00,28.0,14.0,-100.00,East,98,9.0,16.0,56,0.00,,,0.00,233.000000,,2013-03-02 20:11:00,
2013-03-02 15:42:00,28.0,14.0,-100.00,East,91,7.0,17.0,56,0.00,,,0.00,257.000000,,2013-03-02 20:42:00,
2013-03-02 15:53:00,28.0,14.0,-100.00,East,91,7.0,17.0,56,0.00,,,0.00,257.000000,,2013-03-02 20:53:00,
2013-03-02 16:02:00,28.0,14.0,-100.00,East,91,7.0,17.0,56,0.00,,,0.00,257.000000,,2013-03-02 21:02:00,
2013-03-02 16:12:00,28.0,14.0,-100.00,East,91,7.0,17.0,56,0.00,,,0.00,257.000000,,2013-03-02 21:12:00,
2013-03-02 16:42:00,26.0,14.0,-100.00,ESE,103,8.0,15.0,61,0.00,,,0.00,97.000000,,2013-03-02 21:42:00,
2013-03-02 16:52:00,26.0,14.0,-100.00,ESE,103,8.0,15.0,61,0.00,,,0.00,97.000000,,2013-03-02 21:52:00,
2013-03-02 17:02:00,26.0,14.0,-100.00,ESE,103,8.0,15.0,61,0.00,,,0.00,97.000000,,2013-03-02 22:02:00,
2013-03-02 17:11:00,26.0,14.0,-100.00,ESE,103,8.0,15.0,61,0.00,,,0.00,97.000000,,2013-03-02 22:11:00,
2013-03-02 17:42:00,25.0,16.0,-100.00,ESE,104,8.0,18.0,67,0.00,,,-99.99,46.000000,,2013-03-02 22:42:00,
2013-03-02 17:52:00,25.0,16.0,-100.00,ESE,104,8.0,18.0,67,0.00,,,-99.99,46.000000,,2013-03-02 22:52:00,
2013-03-02 18:02:00,25.0,16.0,-100.00,ESE,104,8.0,18.0,67,0.00,,,-99.99,46.000000,,2013-03-02 23:02:00,
2013-03-02 18:11:00,25.0,16.0,-100.00,ESE,104,8.0,18.0,67,0.00,,,-99.99,46.000000,,2013-03-02 23:11:00,
2013-03-02 18:32:00,24.0,17.0,-100.00,East,86,9.0,17.0,74,0.00,,,0.00,10.000000,,2013-03-02 23:32:00,
2013-03-02 18:42:00,24.0,17.0,-100.00,East,86,9.0,17.0,74,0.00,,,0.00,10.000000,,2013-03-02 23:42:00,
2013-03-02 18:52:00,24.0,17.0,-100.00,East,86,9.0,17.0,74,0.00,,,0.00,10.000000,,2013-03-02 23:52:00,
2013-03-02 19:02:00,24.0,17.0,-100.00,East,86,9.0,17.0,74,0.00,,,0.00,10.000000,,2013-03-03 00:02:00,
2013-03-02 19:11:00,24.0,17.0,-100.00,East,86,9.0,17.0,74,0.00,,,0.00,10.000000,,2013-03-03 00:11:00,
2013-03-02 19:42:00,23.0,17.0,-100.00,East,93,9.0,17.0,77,0.00,,,0.00,0.000000,,2013-03-03 00:42:00,
2013-03-02 19:52:00,23.0,17.0,-100.00,East,93,9.0,17.0,77,0.00,,,0.00,0.000000,,2013-03-03 00:52:00,
2013-03-02 20:01:00,23.0,17.0,-100.00,East,93,9.0,17.0,77,0.00,,,0.00,0.000000,,2013-03-03 01:01:00,
2013-03-02 20:11:00,23.0,17.0,-100.00,East,93,9.0,17.0,77,0.00,,,0.00,0.000000,,2013-03-03 01:11:00,
2013-03-02 20:42:00,22.0,17.0,-100.00,East,89,8.0,15.0,80,0.00,,,0.00,0.000000,,2013-03-03 01:42:00,
2013-03-02 20:52:00,22.0,17.0,-100.00,East,89,8.0,15.0,80,0.00,,,0.00,0.000000,,2013-03-03 01:52:00,
2013-03-02 21:01:00,22.0,17.0,-100.00,East,89,8.0,15.0,80,0.00,,,0.00,0.000000,,2013-03-03 02:01:00,
2013-03-02 21:11:00,22.0,17.0,-100.00,East,89,8.0,15.0,80,0.00,,,0.00,0.000000,,2013-03-03 02:11:00,
2013-03-02 21:32:00,21.0,16.0,-100.00,East,90,8.0,16.0,81,0.00,,,0.00,0.000000,,2013-03-03 02:32:00,
2013-03-02 21:42:00,21.0,16.0,-100.00,East,90,8.0,16.0,81,0.00,,,0.00,0.000000,,2013-03-03 02:42:00,
2013-03-02 21:52:00,21.0,16.0,-100.00,East,90,8.0,16.0,81,0.00,,,0.00,0.000000,,2013-03-03 02:52:00,
2013-03-02 22:02:00,21.0,16.0,-100.00,East,90,8.0,16.0,81,0.00,,,0.00,0.000000,,2013-03-03 03:02:00,
2013-03-02 22:11:00,21.0,16.0,-100.00,East,90,8.0,16.0,81,0.00,,,0.00,0.000000,,2013-03-03 03:11:00,
2013-03-02 22:32:00,20.0,16.0,-100.00,East,96,9.0,20.0,83,0.00,,,0.00,0.000000,,2013-03-03 03:32:00,
2013-03-02 22:42:00,20.0,16.0,-100.00,East,96,9.0,20.0,83,0.00,,,0.00,0.000000,,2013-03-03 03:42:00,
2013-03-02 22:52:00,20.0,16.0,-100.00,East,96,9.0,20.0,83,0.00,,,0.00,0.000000,,2013-03-03 03:52:00,
2013-03-02 23:01:00,20.0,16.0,-100.00,East,96,9.0,20.0,83,0.00,,,0.00,0.000000,,2013-03-03 04:01:00,
2013-03-02 23:11:00,20.0,16.0,-100.00,East,96,9.0,20.0,83,0.00,,,0.00,0.000000,,2013-03-03 04:11:00,
2013-03-02 23:32:00,19.0,14.0,-100.00,East,88,10.0,17.0,82,0.00,,,0.00,0.000000,,2013-03-03 04:32:00,
2013-03-02 23:42:00,19.0,14.0,-100.00,East,88,10.0,17.0,82,0.00,,,0.00,0.000000,,2013-03-03 04:42:00,
2013-03-02 23:52:00,19.0,14.0,-100.00,East,88,10.0,17.0,82,0.00,,,0.00,0.000000,,2013-03-03 04:52:00,